Location: Hilina Pali Trail
(19.2864°N, 155.2806°W)
Time: 17:28:25
(UTC+00:00)

Daily predictions for brighter satellites

Satellite Brightness Start Highest point End
(mag) Time Altitude Azimuth Time Altitude Azimuth Time Altitude Azimuth
ATLAS 3B CENTAUR R/B 4.4 14:08:15 18° ENE 14:08:15 18° ENE 14:10:12 10° ENE
SL-16 R/B 3.9 14:12:52 29° E 14:12:52 29° E 14:16:41 10° SE
DASH 4.4 14:18:51 48° ENE 14:18:51 48° ENE 14:31:47 10° ESE
USA 229 DEB 3.9 14:34:07 66° NNE 14:34:46 69° ENE 14:41:59 10° SSE
USA 229 3.9 14:34:09 65° NNE 14:34:51 68° ENE 14:42:04 10° SSE
Cosmos 2221 4.5 14:34:03 10° SSE 14:37:41 27° E 14:37:41 27° E
SWIFT 4.4 14:44:47 24° SE 14:44:47 24° SE 14:46:38 10° ESE
CZ-3C R/B 4.3 14:40:11 44° WSW 14:46:54 65° SSW 17:22:45 10° ESE
Cosmos 2263 Rocket 3.1 14:47:41 10° S 14:53:05 47° ESE 14:58:29 10° NNE
APEX 4.4 14:55:03 10° S 14:59:36 45° ESE 15:03:09 10° NE
BREEZE-M DEB (TANK) 4.1 15:05:21 33° ENE 15:05:21 33° ENE 15:07:11 10° ESE
NOAA 6 4.1 15:01:23 10° NNE 15:06:34 78° ESE 15:11:44 10° S
ASTRO E2 4.3 15:12:55 25° NNE 15:12:55 25° NNE 15:15:00 10° NE
SL-24 R/B - RUBIN 2 4.3 15:13:18 10° SSW 15:19:20 86° WNW 15:25:58 10° NNE
USA 116 4.1 15:20:51 10° S 15:25:50 65° WSW 15:27:04 46° NW
Milstar 3 Cent rocket 3.3 15:19:24 29° W 15:26:08 71° NNW 15:32:36 10° ENE
NOSS 3-1 (C) 4.5 15:18:29 11° NNW 15:26:20 67° ENE 15:34:48 10° SE
Delta 198 3.8 15:32:02 35° N 15:32:06 35° N 15:35:27 10° ENE
Meteor 2-1 Rocket 4.3 15:28:45 10° SSW 15:34:10 52° W 15:39:43 10° N
Cosmos 2058 2.9 15:31:51 14° N 15:35:26 84° E 15:39:37 10° S
Cosmos 2344 3.5 15:28:17 10° SW 15:36:09 61° WNW 15:43:52 10° NNE
COSMO-SKYMED 1 3.5 15:32:13 10° SSE 15:36:22 48° ENE 15:40:32 10° N
Cosmos 1464 Rocket 4.0 15:33:08 10° SSW 15:39:22 59° W 15:45:33 10° N
Cosmos 1538 Rocket 4.1 15:39:10 24° NW 15:42:15 53° WSW 15:47:23 10° S
Ariane Rocket 3.1 15:37:15 10° NNE 15:42:21 80° ESE 15:47:27 10° S
Cosmos 1898 Rocket 3.5 15:39:38 10° SSW 15:44:51 88° ESE 15:50:08 10° NNE
Cosmos 1805 Rocket 3.9 15:44:13 10° N 15:48:33 64° E 15:52:50 10° SSE
Cosmos 923 Rocket 4.3 15:44:38 10° N 15:49:52 68° ENE 15:55:06 10° SSE
Cosmos 1184 Rocket 4.4 15:47:09 10° NNE 15:50:15 37° E 15:53:21 10° SSE
Atlas 2A Centaur Rocket 2.7 15:52:15 24° WNW 15:53:40 30° NNW 15:55:59 10° NE
Cosmos 1356 Rocket 3.7 15:50:41 10° N 15:54:51 71° E 15:59:05 10° SSE
SL-16 R/B 3.4 15:54:50 20° W 15:55:29 21° WSW 15:59:35 10° SSW
Cosmos 1680 Rocket 4.2 15:50:54 10° N 15:56:07 56° ENE 16:01:19 10° SSE
Sich 1 3.9 15:55:51 10° N 16:00:01 51° E 16:04:10 10° SSE
Cosmos 1328 Rocket 3.7 15:56:42 10° S 16:01:00 75° E 16:05:19 10° N
PAYLOAD A 4.1 15:57:20 10° NNE 16:02:07 73° ESE 16:06:48 10° S
Cosmos 2150 Rocket 4.0 15:57:07 10° SSW 16:02:34 76° WNW 16:07:57 10° N
Cosmos 2228 Rocket 3.0 16:00:26 10° S 16:04:52 90° WSW 16:09:18 10° N
Cosmos 389 Rocket 3.0 16:03:50 10° SSW 16:07:14 37° W 16:10:40 10° NNW
ISS -1.4 16:07:20 15° WSW 16:07:56 15° SW 16:09:54 10° SSW
CZ-3B DEB 2.8 16:04:14 10° SSW 16:08:40 32° SE 16:10:58 10° ENE
Cosmos 1937 Rocket 3.4 16:04:58 10° SSW 16:10:06 73° WNW 16:15:13 10° N
Cosmos 1703 3.3 16:06:48 10° NNW 16:10:38 55° W 16:14:30 10° S
Cosmos 1633 Rocket 3.5 16:07:03 10° N 16:11:21 64° E 16:15:37 10° SSE
GPS 2-12 Rocket1 2.9 16:07:41 15° W 16:11:26 87° S 16:15:53 10° E
ERBS 3.7 16:11:29 17° W 16:13:03 23° WSW 16:15:50 10° S
IDEFIX/ARIANE 42P 3.1 16:08:59 10° NNE 16:14:12 64° ESE 16:19:23 10° S
Cosmos 1515 Rocket 3.7 16:10:27 10° S 16:14:50 80° E 16:19:15 10° N
Cosmos 2221 4.4 16:13:09 10° WSW 16:14:14 12° W 16:14:14 12° W
Cosmos 1726 3.3 16:14:21 10° SSE 16:17:52 47° E 16:21:25 10° NNE
IRS-1A Rocket 4.3 16:12:11 10° NNE 16:17:59 86° WNW 16:23:40 10° SSW
CZ-4 R/B 1.6 16:16:14 10° NNE 16:20:23 81° ESE 16:24:34 10° S
OAO 2 Rocket 3.4 16:15:46 12° NW 16:20:23 72° NNE 16:25:18 10° ESE
SWIFT 4.2 16:21:12 10° WSW 16:24:17 19° SSW 16:27:22 10° SSE
SKYMED 2 4.2 16:20:26 10° SSW 16:24:23 35° W 16:28:21 10° NNW
IUS-13 SRM-1 1.8 16:23:26 12° WNW 16:25:14 66° SSW 16:30:08 10° ESE
CZ-2C R/B 2.3 16:22:18 10° NNE 16:26:53 89° ESE 16:31:32 10° SSW
SJ-12 3.8 16:23:48 10° N 16:27:51 76° WNW 16:31:54 10° SSW
H-2A R/B 2.5 16:27:50 10° N 16:28:10 10° N 16:28:30 10° N
Cosmos 292 Rocket 4.2 16:27:19 10° NNW 16:31:49 41° W 16:36:20 10° S
Meteor 2-2 Rocket 4.3 16:26:22 10° SSW 16:32:12 67° W 16:37:57 10° N
Cosmos 2112 Rocket 4.1 16:27:34 10° NNW 16:32:52 68° WSW 16:38:09 10° S
Cosmos 1943 3.2 16:27:21 10° NNW 16:33:03 83° WSW 16:38:41 10° SSE
Cosmos 1634 Rocket 4.0 16:28:17 10° S 16:34:36 81° W 16:40:53 10° N
CZ-3 R/B 4.0 16:29:20 10° W 16:37:39 16° WSW 16:42:09 10° SSW
NOSS 3-1 (A) 4.4 16:31:47 10° NW 16:39:40 52° WSW 16:47:51 10° S
ATLAS 2A CENTAUR R/B 3.3 16:23:33 10° WNW 16:40:03 76° NNE 16:43:48 10° E
